STARLINK-33928, 64003

Orbit data source: Space-Track

STARLINK-33928, 64003 is a payload satellite owned by SpaceX/Seattle (US) in LEO that was launched on Wed, 14 May 2025 UTC via an FALCON 9 launch vehicle from the Air Force Eastern Test Range (AFETR). Payload-class satellites include a variety of spacecraft equipped with specific instruments for various scientific and technological missions. These include communications satellites like Starlink; space stations such as the ISS; scientific satellites like the Hubble; Earth observation satellites from companies like Planet Labs, Umbra, and HawkEye 360; GPS; miniature CubeSats for education and research; and military/defense satellites.

Loading next visibility...
Identifier
64003, 2025-101K
Orbit
LEO
Country
Flag of USUS
Related business
Manufacturer
SpaceX/Seattle
Mission
Operational Commercial Communications
Bus & Motor
STARLINK V2MO, Unknown motor
Mass
575 kg wet, ~530 kg dry
Launch date (UTC)
2025-05-14 (1 year ago)
Launch vehicle
FALCON 9
Launch site
Air Force Eastern Test Range (AFETR)
Object type
Payload
Rocket body
Debris
Shape & HBR
Box + 2 Pan, 17.7 m
Radar Cross Section
36.964 m², Large (>1 m²)

Expand to show TLE details & history
Last TLE update: 14 hours ago

TLE from 14 hours ago
0 STARLINK-33928
1 64003U 25101K   26171.24212580  .00017414  00000-0  64063-3 0  9992
2 64003  43.0014 138.4268 0001657 270.6119  89.4543 15.27591011 62748
Epoch: 2026-06-20T05:48Z
TLE epoch observation values (Epoch: 2026-06-20T05:48:39.669Z)
Latitude
0.00001°
Longitude
142.80196°
Altitude
482.781 km
Speed
7.626 km/s
True Right ascension
09h 13m 42s
True Declination
0° 00' 00"
Sunlit
Object was in daylight at epoch
Visualization orbit readout
Latitude
Unknown
Longitude
Unknown
Altitude
Unknown
Speed
Unknown
Apparent Right ascension
Unknown
Apparent Declination
Unknown
Sunlit
N/A
Visualization observer readout
Local Sidereal Time
07:12:55
Azimuth
Unknown
Elevation
Unknown
Doppler factor
Unknown
Orbital elements
Apogee altitude
486.098 km
Perigee altitude
483.824 km
Semi-major axis
6,863.098 km
Eccentricity
0.00017
Inclination
43.0014°
RAAN
138.4268°
Arg. of periapsis
270.6119°
True anomaly
89.47329°
Mean anomaly
89.4543°
Eccentric anomaly
89.46379°
Mean motion
3.81736 °/min
Orbital period
94.31 mins
BSTAR
0.00064063
Loading maneuver chart data...
Computing Atmospheric mass density...
Loading historical data...
Loading historical data...
Loading historical data...
Loading historical data...
Loading historical data...
Loading historical data...
Loading historical data...

Documentation

Showing up to 5 results
|